This is the latest recevied weather packets stored in our database for station/object IT9CNT. If no packets are shown the sender has not sent any weather packets the latest 10 day(s).
| Time | Temp. | Humidity | Pressure | Rain* | Wind** | Luminosity | Snow |
|---|---|---|---|---|---|---|---|
| 1787425803 | 27.78° C | 93% | 1012.9 hPa | 14.22 mm | - | - | - |
| 1787425743 | 27.78° C | 92% | 1013 hPa | 13.21 mm | - | - | - |
| 1787425683 | 27.78° C | 92% | 1013 hPa | 13.21 mm | - | - | - |
| 1787425623 | 27.78° C | 91% | 1012.9 hPa | 12.95 mm | - | - | - |
| 1787425563 | 27.78° C | 91% | 1012.9 hPa | 12.95 mm | - | - | - |
| 1787425503 | 27.78° C | 91% | 1013 hPa | 12.19 mm | - | - | - |
| 1787425443 | 27.78° C | 91% | 1012.8 hPa | 11.94 mm | - | - | - |
| 1787425383 | 27.78° C | 89% | 1012.9 hPa | 10.41 mm | - | - | - |
| 1787425323 | 27.78° C | 89% | 1013 hPa | 10.41 mm | - | - | - |
| 1787425263 | 27.78° C | 89% | 1012.9 hPa | 10.41 mm | - | - | - |
| 1787425203 | 27.78° C | 89% | 1013 hPa | 10.41 mm | - | - | - |
| 1787425143 | 27.78° C | 89% | 1012.9 hPa | 10.41 mm | - | - | - |
| 1787425083 | 27.78° C | 89% | 1013 hPa | 10.16 mm | - | - | - |
| 1787425023 | 27.78° C | 89% | 1013 hPa | 9.91 mm | - | - | - |
| 1787424963 | 27.78° C | 89% | 1013 hPa | 9.65 mm | - | - | - |
| 1787424903 | 27.78° C | 89% | 1012.8 hPa | 9.4 mm | - | - | - |
| 1787424843 | 27.78° C | 89% | 1012.8 hPa | 8.64 mm | - | - | - |
| 1787424784 | 27.78° C | 89% | 1012.8 hPa | 8.64 mm | - | - | - |
| 1787424723 | 27.78° C | 89% | 1012.8 hPa | 8.13 mm | - | - | - |
| 1787424664 | 27.78° C | 89% | 1012.8 hPa | 8.64 mm | - | - | - |
| 1787424608 | 27.78° C | 89% | 1012.7 hPa | 7.87 mm | - | - | - |
| 1787424543 | 27.78° C | 89% | 1013 hPa | 8.38 mm | - | - | - |
| 1787424483 | 27.78° C | 89% | 1012.8 hPa | 8.38 mm | - | - | - |
| 1787424423 | 27.78° C | 90% | 1012.8 hPa | 8.89 mm | - | - | - |
| 1787424363 | 27.78° C | 90% | 1012.8 hPa | 8.64 mm | - | - | - |
* Rain latest hour (hover to see other rain measurements)
** Current wind speed in m/s (hover to see current wind gust speed)